#timestamp,LO_Frequency,Hit,StdDev 
1580734815.7,286047006.7,N
1580734835.5,286047009.1,Y
1580734855.3,286047004.8,P
1580734875.2,286047003.7,P
1580734895.9,286046999.7,N
1580734915.7,286047004.4,N
1580734935.6,286047003.3,N
1580734955.4,286047003.0,N
1580734975.3,286047005.7,Y
1580734995.1,286046999.7,P
1580734996.0,286046999.7,N
1580735015.8,286047004.1,N
1580735035.7,286047002.2,N
1580735055.5,286047001.5,N
1580735075.3,286047003.3,N
1580735095.2,286047006.0,Y
1580735115.0,286047003.8,P
1580735115.9,286047003.8,P
1580735135.8,286047004.2,P
1580735155.6,286047003.8,Y
1580735175.4,286047001.1,P
1580735195.3,286046998.1,N
1580735215.1,286047002.2,N
1580735235.9,286047003.8,N
1580735255.7,286047001.5,N
1580735275.5,286047003.6,N
1580735295.4,286047003.8,N
1580735315.2,286047006.0,Y
1580735335.0,286047002.7,P
1580735335.9,286047002.7,P
1580735355.8,286047000.0,N
1580735375.6,286046999.1,N
1580735395.5,286046999.6,N
1580735415.3,286047001.0,N
1580735435.1,286047002.3,N
1580735455.9,286047000.1,N
1580735475.7,286046999.7,N
1580735495.6,286047003.7,N
1580735515.4,286047003.5,N
1580735535.2,286047001.9,N
1580735555.1,286047004.0,N
1580735556.0,286047004.0,N
1580735575.8,286047005.7,Y
1580735595.7,286047004.1,P
1580735615.5,286047006.0,P
1580735635.3,286047001.6,N
1580735655.2,286047004.4,N
1580735675.9,286047003.9,N
1580735695.7,286047003.9,N
1580735715.6,286047001.5,N
1580735735.4,286047003.9,N
1580735755.3,286047004.0,N
1580735775.1,286047001.8,N
1580735776.0,286047001.8,N
1580735795.8,286047003.1,N
1580735815.7,286047003.1,N
1580735835.5,286047003.3,N
1580735855.3,286047003.7,N
1580735875.2,286047003.9,Y
1580735895.0,286047000.3,P
1580735895.9,286047000.3,N
1580735915.8,286046999.9,N
1580735935.6,286046998.4,N
1580735955.4,286046998.6,N
1580735975.3,286046996.8,N
1580735995.1,286047001.1,N
1580736015.9,286047000.7,N
1580736035.7,286046999.6,N
1580736055.5,286046998.4,N
1580736075.4,286046998.5,N
1580736095.2,286046998.9,N
1580736115.1,286046999.2,N
1580736116.0,286046999.2,N
1580736135.8,286047000.2,N
1580736155.6,286046999.9,N
1580736175.5,286046998.1,N
1580736195.3,286046998.6,N
1580736215.2,286047002.8,N
1580736235.9,286046999.7,N
1580736255.7,286047000.2,N
1580736275.6,286047002.7,N
1580736295.4,286047000.7,N
1580736315.3,286046999.9,N
1580736335.1,286046999.0,N
1580736336.0,286046999.0,N
1580736355.8,286046999.3,N
1580736375.7,286047000.3,N
1580736395.5,286047002.4,N
1580736415.3,286046998.2,N
1580736435.2,286047000.2,N
1580736455.0,286047000.6,N
1580736455.9,286047000.6,N
1580736475.8,286047002.8,N
1580736495.6,286047000.6,N
1580736515.4,286047001.0,N
1580736535.3,286047000.7,N
1580736555.1,286047002.2,N
1580736575.9,286047000.0,N
1580736595.7,286047002.8,N
1580736615.5,286047002.7,N
1580736635.4,286046999.7,N
1580736655.2,286047000.8,N
1580736675.0,286046999.7,N
1580736675.9,286046999.7,N
1580736695.8,286047000.6,N
1580736715.6,286047002.4,N
1580736735.5,286047004.3,Y
1580736755.3,286047000.8,P
1580736775.1,286046998.8,P
1580736795.9,286046999.2,N
1580736815.7,286046999.5,N
1580736835.6,286046998.1,N
1580736855.4,286046998.1,N
1580736875.2,286046999.8,N
1580736895.1,286046999.7,N
1580736896.0,286046999.7,N
1580736915.8,286047001.1,N
1580736935.7,286046998.1,N
1580736955.5,286046998.5,N
1580736975.3,286046998.5,N
1580736995.2,286047001.2,N
1580737015.0,286046998.5,N
1580737015.9,286046998.5,N
1580737035.7,286047000.7,N
1580737055.6,286047001.0,N
1580737075.4,286047000.3,N
1580737095.3,286047000.9,N
1580737115.1,286046998.1,N
1580737116.0,286046998.1,N
1580737135.8,286046999.5,N
1580737155.7,286046996.8,N
1580737175.5,286046999.5,N
1580737195.3,286046996.9,N
1580737215.2,286046997.8,N
1580737235.0,286046997.6,N
1580737235.9,286046997.6,N
1580737255.8,286046997.6,N
1580737275.6,286046997.2,N
1580737295.4,286046999.6,N
1580737315.3,286047001.1,N
1580737335.1,286046999.4,N
1580737355.9,286047000.0,N
1580737375.7,286046999.7,N
1580737395.5,286047001.0,N
1580737415.4,286047000.5,N
1580737435.2,286047002.4,N
1580737455.0,286046999.8,N
1580737455.9,286046999.8,N
1580737475.8,286046998.1,N
1580737495.6,286047001.2,N
1580737515.5,286047000.1,N
1580737535.3,286047000.3,N
1580737555.1,286047000.2,N
1580737575.9,286047002.4,N
1580737595.7,286046999.7,N
1580737615.5,286047002.3,N
1580737635.4,286047000.1,N
1580737655.2,286046999.9,N
1580737675.1,286047000.3,N
1580737676.0,286047000.3,N
1580737695.8,286047002.3,N
1580737715.6,286047001.4,N
1580737735.5,286047003.5,N
1580737755.3,286047003.1,N
1580737775.2,286047004.9,Y
1580737795.9,286047004.2,P
1580737815.7,286047003.1,N
1580737835.6,286047005.9,P
1580737855.4,286047004.0,N
1580737875.3,286047000.1,N
1580737895.1,286047000.0,N
1580737896.0,286047000.0,N
1580737915.8,286047002.3,N
1580737935.7,286047001.5,N
1580737955.5,286047001.8,N
1580737975.4,286047004.1,N
1580737995.2,286046999.7,N
1580738015.0,286047000.9,N
1580738015.9,286047000.9,N
1580738035.8,286046998.7,N
1580738055.6,286046999.0,N
1580738075.5,286047001.2,N
1580738095.3,286047000.8,N
1580738115.1,286046998.4,N
1580738135.9,286046999.2,N
1580738155.7,286046998.6,N
1580738175.5,286047001.9,N
1580738195.4,286047002.3,N
1580738215.2,286047000.7,N
1580738235.1,286047002.4,N
1580738236.0,286047002.4,N
1580738255.8,286047000.1,N
1580738275.6,286047003.6,N
1580738295.5,286047005.4,N
1580738315.3,286047005.5,N
1580738335.1,286047006.0,N
1580738355.9,286047003.1,N
1580738375.7,286047004.0,N
1580738395.6,286047003.3,N
